Regional Weather Roundup
Issued by NWS

Home | Current Version | Previous Version | Text Only | Print | Product List | Glossary On
Versions: 1 2 3 4 5 6 7 8 9 10 11 12 13 14 15 16 17 18 19 20 21 22 23 24 25 26 27 28 29 30 31 32 33 34 35 36 37 38 39 40 41 42 43 44 45 46 47 48 49 50
000
ASUS43 KLOT 142308
RWRIL

ILLINOIS REGIONAL WEATHER ROUNDUP
NATIONAL WEATHER SERVICE CHICAGO/ROMEOVILLE IL
600 PM CDT TUE AUG 14 2018

NOTE: "FAIR" INDICATES FEW OR NO CLOUDS BELOW 12,000 FEET WITH NO
SIGNIFICANT WEATHER AND/OR OBSTRUCTIONS TO VISIBILITY.

* THESE STATIONS ARE NOT UNDER NWS QUALITY CONTROL. THEY ALSO MAY NOT
  REPORT WEATHER SUCH AS PRECIPITATION OR FOG.

ILZ001-002-007-009-015-016-024-150000-
NORTHWEST ILLINOIS

CITY           SKY/WX    TMP DP  RH WIND       PRES   REMARKS
MOLINE         FAIR      83  70  64 S5        29.92S HX  87
STERLING*      FAIR      83  70  64 E3        29.95S HX  87
SAVANNA*       FAIR      84  66  54 SE7       29.93S HX  86
$$

ILZ003-004-008-010-011-017-018-150000-
NORTH CENTRAL ILLINOIS

CITY           SKY/WX    TMP DP  RH WIND       PRES   REMARKS
ROCKFORD       PTSUNNY   81  67  62 S6        29.96F HX  83
FREEPORT*      FAIR      79  70  73 SE3       29.97S HX  82
ROCHELLE*      FAIR      80  70  71 S3        29.96S HX  84
DE KALB*       FAIR      82  68  61 S6        29.98S HX  85
PERU*          FAIR      88  64  45 S7        29.96S HX  89
$$

ILZ005-006-012>014-019>023-150000-
NORTHEAST ILLINOIS

CITY           SKY/WX    TMP DP  RH WIND       PRES   REMARKS
CHICAGO-OHARE  CLOUDY    86  61  42 W7        29.94F HX  86
CHICAGO-MIDWAY PTSUNNY   86  60  41 SW9       29.95R HX  86
AURORA         FAIR      85  66  53 SW5       29.96S HX  87
LANSING*       FAIR      83  61  46 S7        29.96S HX  84
JOLIET*        FAIR      88  62  41 SW3       29.95F HX  88
WAUKEGAN       PTSUNNY   81  70  69 SE6       29.94F HX  84
DUPAGE AIRPORT FAIR      83  67  58 W3        29.95F HAZE    HX  85
KANKAKEE*      FAIR      85  60  42 S8        29.97S HX  84
WHEELING       FAIR      86  65  49 W5        29.96S HX  88
MORRIS*        FAIR      85  64  49 W3        29.95S HX  86
ROMEOVILLE*    FAIR      84  62  47 W7        29.96S HX  85
NORTHERLY ISL    N/A     83  59  44 SE3         N/A  HX  83
$$

LMZ740>746-150000-
SOUTHERN LAKE MICHIGAN

STATION/POSITION SKY/WX   TEMP    WIND        PRES    VSBY  WAVE
                          AIR SEA DIR/SP/G                  HT/PER
                          (F)     (DEG/KT/KT) (MB)    (MI)  (FT/S)
SOUTHERN BUOY              78 78  160/  8/ 10 1013.7F         0
WINTHROP HARBOR            78 77                N/A           1
WAUKEGAN HARBOR            79 77  200/  6       N/A           1
WILMETTE HARBOR            79 77  120/  6/  8   N/A           1/ 2
HARRISON CRIB              81     130/ 11/ 11   N/A
NORTHERLY ISL              85     220/  3/  8   N/A
CALUMET HARBOR             86     240/  3/  5 1013.7R
BURNS HARBOR               82                 1014.9S
MICHIGAN CITY              82      20/  2/  2   N/A
MICHIGAN CITY 6N           80 80  110/  6/  6   N/A           0
ST. JOSEPH                 80 79  160/  2/  4 1014.1          0
$$

ILZ025>027-034>036-040-047-049-050-058-095>099-150000-
WEST-CENTRAL ILLINOIS

CITY           SKY/WX    TMP DP  RH WIND       PRES   REMARKS
QUINCY         MOSUNNY   81  68  64 S8        29.92S HX  84
GALESBURG*     FAIR      83  67  59 SE5       29.95S HX  86
MACOMB*        CLOUDY    80  72  76 SE9       29.95S HX  83
JACKSONVILLE*  CLOUDY    76  73  87 SE3       29.94S
PITTSFIELD*    CLOUDY    81  72  74 SE7       29.93F HX  85
$$

ILZ028>032-037-038-041>044-048-051>054-059>061-150000-
CENTRAL ILLINOIS

CITY           SKY/WX    TMP DP  RH WIND       PRES   REMARKS
PONTIAC        FAIR      83  67  58 S3        29.97S HX  86
BLOOMINGTON    FAIR      82  68  62 SE8       29.98S HX  85
DECATUR        FAIR      83  71  67 S8        29.97S HX  87
PEORIA         FAIR      83  68  60 SE6       29.95S HX  86
LACON*         FAIR      84  65  53 SE6       29.94S HX  86
LINCOLN*       FAIR      84  71  65 CALM      29.95F HX  88
SPRINGFIELD    FAIR      81  73  76 CALM      29.95S HX  86
TAYLORVILLE    PTSUNNY   79  73  79 S8        29.96S HX  83
$$

ILZ033-039-045-046-055>057-062-063-150000-
EAST-CENTRAL ILLINOIS

CITY           SKY/WX    TMP DP  RH WIND       PRES   REMARKS
CHAMPAIGN      FAIR      82  68  62 S5        29.99R HX  85
DANVILLE*      FAIR      80  69  68 SE5       29.97R HX  83
RANTOUL*       FAIR      83  71  68 S3        29.98S HX  88
MATTOON        FAIR      82  68  62 CALM      29.98S HX  85
PARIS*         FAIR      80  71  72 CALM      30.00S HX  84
$$

ILZ079-100>102-150000-
SOUTHWEST ILLINOIS

CITY           SKY/WX    TMP DP  RH WIND       PRES   REMARKS
ALTON          MOSUNNY   77  72  83 S9        29.96S
BELLEVILLE     PTSUNNY   79  70  74 SW8       29.95F HX  81
CAHOKIA*       CLOUDY    78  71  79 S6        29.96R HX  80
SPARTA*        CLOUDY    78  75  89 S6        29.98F HX  81
$$

ILZ064>066-069>071-074>076-080>082-084>086-088>090-092>094-150000-
SOUTH-CENTRAL ILLINOIS

CITY           SKY/WX    TMP DP  RH WIND       PRES   REMARKS
CARBONDALE     PTSUNNY   78  73  84 S7        29.97F HX  81
CAIRO*         FAIR      78  76  94 SE6       29.97F HX  82
EFFINGHAM*     CLOUDY    79  70  74 CALM      30.00S HX  81
MARION         CLOUDY    77  72  83 S6        29.99F
MT. VERNON     FAIR      80  75  84 S6        29.98F HX  85
CENTRALIA*     CLOUDY    79  75  87 S7        29.97F HX  83
SALEM*         FAIR      80  73  79 S5        29.98S HX  84
METROPOLIS*    LGT RAIN  80  75  85 CALM      29.99F HX  85
$$

ILZ067-068-072-073-078-083-087-091-150000-
SOUTHEAST ILLINOIS

CITY           SKY/WX    TMP DP  RH WIND       PRES   REMARKS
LAWRENCEVILLE  CLOUDY    86  65  49 SW7       29.98R HX  88
FLORA*         FAIR      82  72  70 SW6       29.98F HX  87
FAIRFIELD*     CLOUDY    78  73  84 S3        29.98F HX  81
HARRISBURG*    LGT RAIN  80  73  80 S3        29.99F HX  84
ROBINSON*      FAIR      83  71  66 CALM      29.98S HX  87
CARMI*         CLOUDY    81  72  74 CALM      29.98F HX  84
$$

ABBREVIATIONS USED IN REMARKS
   TC - TEMPERATURE IN CELSIUS
  WCI - WIND CHILL INDEX
   HX - HEAT INDEX
  VSB - VISIBILITY
$$





USA.gov is the U.S. government's official web portal to all federal, state and local government web resources and services.